Home > Weather > San Andrés > Past weeks

Flag for Colombia Past Weather in San Andrés, Colombia — Yesterday and Last 2 Weeks

Now
84 °F

Overcast.


Feels Like: 96 °F
Forecast: 82 / 87 °F
Wind: 16 mph from East

Location: San Andres Isla / Sesquicentenario

Current Time: Jun 27, 2016 at 1:39:13 PM

Latest Report: Jun 27, 2016 at 1:00 PM


Visibility: N/A

Pressure: 29.86 "Hg

Humidity: 84%

Dew Point: 79 °F

Location of San AndrésLocation

Past Weather in San Andrés — Graph

°F

San Andrés Temperature Yesterday

Maximum temperature yesterday: 86 °F (at 11:00 AM)
Minimum temperature yesterday: 81 °F (at 12:00 AM)
Average temperature yesterday: 84 °F

High & Low Weather Summary for the Past Weeks

 TemperatureHumidityPressure
High88 °F (Jun 14, 2:00 PM)100% (Jun 16, 5:00 AM)29.99 "Hg (Jun 16, 5:00 AM)
Low77 °F (Jun 22, 7:00 AM)74% (Jun 17, 5:00 AM)29.55 "Hg (Jun 17, 2:00 AM)
Average84 °F84%29.89 "Hg
* Reported Jun 12 12:00 PM — Jun 27 12:00 PM, San Andrés, Weather by CustomWeather, © 2016

Note: Actual official high and low records may vary slightly from our data, if they occured in-between our weather recording intervals... More about our weather records

Advertising

San Andrés Weather History for the Previous 24 Hours

Scroll right to see more
 ConditionsComfort  
Time TempWeatherWind HumidityBarometerVisibility
12:00 PM
Mon, Jun 27
84 °FOvercast.18 mph84%29.85 "HgN/A
11:00 AM84 °FOvercast.18 mph84%29.86 "HgN/A
10:00 AM84 °FMore clouds than sun.18 mph84%29.86 "HgN/A
9:00 AM84 °FOvercast.18 mph84%29.84 "HgN/A
8:00 AM84 °FMore clouds than sun.18 mph84%29.83 "HgN/A
7:00 AM82 °FPartly sunny.20 mph89%29.83 "HgN/A
6:00 AM81 °FPassing clouds.21 mph79%29.82 "HgN/A
5:00 AM79 °FThunderstorms. Partly cloudy.12 mph94%29.82 "HgN/A
4:00 AM82 °FPassing clouds.17 mph89%29.80 "HgN/A
3:00 AM84 °FOvercast.16 mph84%29.81 "HgN/A
2:00 AM84 °FPassing clouds.18 mph84%29.81 "HgN/A
1:00 AM82 °FPassing clouds.16 mph84%29.84 "HgN/A
12:00 AM82 °FPartly cloudy.17 mph89%29.87 "HgN/A
11:00 PM
Sun, Jun 26
82 °FPartly cloudy.12 mph89%29.87 "HgN/A
10:00 PM84 °FPassing clouds.10 mph84%29.88 "Hg6 mi
9:00 PM84 °FOvercast.12 mph84%29.87 "HgN/A
8:00 PM82 °FOvercast.13 mph84%29.87 "HgN/A
7:00 PM84 °FOvercast.13 mph84%29.85 "HgN/A
6:00 PM84 °FOvercast.14 mph84%29.84 "HgN/A
5:00 PM84 °FOvercast.14 mph84%29.83 "HgN/A
4:00 PM84 °FMore clouds than sun.12 mph89%29.84 "HgN/A
3:00 PM86 °FOvercast.14 mph84%29.85 "HgN/A
2:00 PM86 °FOvercast.15 mph84%29.86 "HgN/A
1:00 PM86 °FOvercast.15 mph84%29.87 "HgN/A
Weather by CustomWeather, © 2016

See weather overviewHow to use our weather pages